Location: Drocourt
(49.0571°N, 1.7669°E)
Time: 08:07:02
(UTC+00:00)

Cosmos 2333 Rocket - Pass Details

Date: 09 February 2023
Orbit: 837 x 864 km, 70.8° (Epoch: 23 March)

Event Time Altitude Azimuth Distance (km) Brightness Sun altitude
Rises 18:41:29 0° 225° (SW) 3,386 6.1 -16.5°
Reaches altitude 10° 18:44:00 10° 231° (SW) 2,457 5.4 -17.0°
Maximum altitude 18:49:28 49° 306° (NW) 1,080 3.1 -17.8°
Drops below altitude 10° 18:55:00 10° 21° (NNE) 2,488 4.4 -18.8°
Enters shadow 18:56:35 - 25° (NNE) 3,066 4.9 -19.0°
